Campo, CA

4:02 PM PDT on May 24, 2017 (GMT -0700)
Campo

Weather History for KCZZ - January, 2013

Change the Weather History Date:

Friday, January 4, 2013

  Actual Average Record
Temperature  
Mean Temperature 42 °F 48 °F  
Max Temperature 57 °F 63 °F 81 °F (2003)
Min Temperature 26 °F 34 °F 19 °F (1993)
Degree Days  
Heating Degree Days 23 17  
Month to date heating degree days 87 68  
Since 1 July heating degree days 1085 1174  
Cooling Degree Days 0 0  
Month to date cooling degree days 0 0  
Year to date cooling degree days 0 0  
Moisture  
Dew Point 5 °F    
Average Humidity 25    
Maximum Humidity 39    
Minimum Humidity 10    
Precipitation  
Precipitation 0.00 in 0.10 in 0.85 in (2005)
Month to date precipitation 0.00 0.38  
Year to date precipitation 0.00 0.38  
Since 1 July precipitation 4.47  
Snow  
Snow 0.00 in - - ()
Month to date snowfall 0.0  
Year to date snowfall 0.0  
Snow Depth 0.00 in    
Sea Level Pressure  
Sea Level Pressure 30.16 in    
Wind  
Wind Speed 9 mph (NE)    
Max Wind Speed 21 mph    
Max Gust Speed 26 mph    
T = Trace of Precipitation, MM = Missing Value Source: NWS Daily Summary

Daily Weather History Graph

Daily Weather History Graph

Search for Another Location

Airport or City:

Trip Planner

Search our weather history database for the weather conditions in past years. The results will help you decide how hot, cold, wet, or windy it might be!

Date:

Astronomy

Jan. 04, 2013 Rise Set
Actual Time 6:48 AM PST 4:53 PM PST
Civil Twilight 6:21 AM PST 5:20 PM PST
Nautical Twilight 5:50 AM PST 5:51 PM PST
Astronomical Twilight 5:20 AM PST 6:21 PM PST
Moon No Moon Rise 10:59 AM PST (1/4)
Length of Visible Light 10h 59m
Length of Day
10h 05m
Waning Gibbous, 54% of the Moon is Illuminated
Jan 4
Waning Gibbous
Jan 4
Last Quarter
Jan 11
New
Jan 18
First Quarter
Jan 26
Full

Hourly Weather History & Observations

Time (PST) Temp. Windchill Dew Point Humidity Pressure Visibility Wind Dir Wind Speed Gust Speed Precip Events Conditions
12:52 AM 37.0 °F 32.4 °F 7.0 °F 29% 30.14 in - East 5.8 mph - N/A   Unknown
1:52 AM 37.0 °F 33.3 °F 6.1 °F 28% 30.14 in - Variable 4.6 mph - N/A   Unknown
2:52 AM 39.9 °F 37.8 °F 3.9 °F 22% 30.14 in - NNE 3.5 mph - N/A   Unknown
3:52 AM 39.0 °F - 5.0 °F 24% 30.14 in - Calm Calm - N/A   Unknown
4:52 AM 41.0 °F 34.7 °F 3.9 °F 21% 30.13 in - ENE 10.4 mph - N/A   Unknown
5:52 AM 41.0 °F 38.0 °F 3.0 °F 21% 30.15 in - NE 4.6 mph - N/A   Unknown
6:52 AM 42.1 °F 40.2 °F 3.0 °F 20% 30.17 in - Variable 3.5 mph - N/A   Unknown
7:52 AM 46.0 °F 42.5 °F 3.9 °F 18% 30.19 in - ENE 6.9 mph - N/A   Unknown
8:52 AM 50.0 °F - 3.0 °F 15% 30.19 in - NE 16.1 mph - N/A   Unknown
9:52 AM 52.0 °F - 1.9 °F 13% 30.20 in - ENE 17.3 mph - N/A   Unknown
10:52 AM 54.0 °F - 3.0 °F 13% 30.17 in - ENE 13.8 mph - N/A   Unknown
11:52 AM 55.0 °F - 1.9 °F 12% 30.14 in - ENE 19.6 mph - N/A   Unknown
12:52 PM 57.0 °F - 1.9 °F 11% 30.12 in - ENE 15.0 mph - N/A   Unknown
1:52 PM 57.0 °F - 1.9 °F 11% 30.11 in - ENE 15.0 mph - N/A   Unknown
2:52 PM 57.0 °F - 3.0 °F 11% 30.11 in - ENE 12.7 mph - N/A   Unknown
3:52 PM 54.0 °F - 3.0 °F 13% 30.12 in - East 12.7 mph - N/A   Unknown
4:52 PM 48.0 °F - 6.1 °F 18% 30.13 in - East 12.7 mph - N/A   Unknown
5:52 PM 42.1 °F 37.1 °F 7.0 °F 24% 30.15 in - NNE 8.1 mph - N/A   Unknown
6:52 PM 37.9 °F 32.7 °F 8.1 °F 29% 30.17 in - NNE 6.9 mph - N/A   Unknown
7:52 PM 36.0 °F 31.1 °F 9.0 °F 33% 30.17 in - NNE 5.8 mph - N/A   Unknown
8:52 PM 33.1 °F 26.9 °F 7.0 °F 34% 30.18 in - North 6.9 mph - N/A   Unknown
9:52 PM 30.9 °F 26.2 °F 9.0 °F 40% 30.19 in - North 4.6 mph - N/A   Unknown
10:52 PM 30.0 °F 24.1 °F 9.0 °F 41% 30.19 in - North 5.8 mph - N/A   Unknown
11:52 PM 27.0 °F - 9.0 °F 47% 30.20 in - Calm Calm - N/A   Unknown